Debrecen, Hungary

8:18 PM CEST on April 28, 2017 (GMT +0200)
Debrecen

Weather History for LHDC - May, 2013

Change the Weather History Date:

Thursday, May 9, 2013

  Actual Average Record
Temperature  
Mean Temperature 67 °F -  
Max Temperature 79 °F 72 °F - ()
Min Temperature 55 °F 52 °F - ()
Cooling Degree Days 2    
Growing Degree Days 17 (Base 50)    
Moisture  
Dew Point 56 °F    
Average Humidity 64    
Maximum Humidity 88    
Minimum Humidity 38    
Precipitation  
Precipitation 0.00 in 0.09 in - ()
Sea Level Pressure  
Sea Level Pressure 30.04 in    
Wind  
Wind Speed 4 mph ()    
Max Wind Speed 8 mph    
Max Gust Speed -    
Visibility 8.2 miles    
Events      
T = Trace of Precipitation, MM = Missing Value Source: Averaged Metar Reports

Daily Weather History Graph

Daily Weather History Graph

Search for Another Location

Airport or City:

Trip Planner

Search our weather history database for the weather conditions in past years. The results will help you decide how hot, cold, wet, or windy it might be!

Date:

Astronomy

May. 09, 2013 Rise Set
Actual Time 5:04 AM CEST 7:56 PM CEST
Civil Twilight 4:29 AM CEST 8:31 PM CEST
Nautical Twilight 3:43 AM CEST 9:17 PM CEST
Astronomical Twilight 2:49 AM CEST 10:12 PM CEST
Moon 4:40 AM CEST (5/9) 7:32 PM CEST (5/9)
Length of Visible Light 16h 02m
Length of Day
14h 51m
Waning Crescent, 0% of the Moon is Illuminated
May 9
Waning Crescent
May 10
New
May 18
First Quarter
May 25
Full
May 31
Last Quarter

Hourly Weather History & Observations

Time (CEST) Temp. Dew Point Humidity Pressure Visibility Wind Dir Wind Speed Gust Speed Precip Events Conditions
2:00 AM 61 °F 55 °F 74% 30.00 in - NE 6.7 mph - -  
4:45 AM 57.2 °F 51.8 °F 82% 30.01 in - ESE 4.6 mph - N/A   Clear
5:45 AM 57.2 °F 53.6 °F 88% 30.01 in - ESE 5.8 mph - N/A   Clear
6:15 AM 57.2 °F 53.6 °F 88% 30.04 in - SE 3.5 mph - N/A   Clear
6:45 AM 59.0 °F 55.4 °F 88% 30.04 in - SE 3.5 mph - N/A   Clear
7:02 AM - - N/A% - - Variable 3.5 mph - N/A   Dust Whirls
7:15 AM 60.8 °F 57.2 °F 88% 30.04 in - ESE 4.6 mph - N/A   Clear
7:45 AM 62.6 °F 57.2 °F 82% 30.06 in - SE 5.8 mph - N/A   Clear
8:00 AM 63 °F 58 °F 77% 30.04 in 9 mi SE 6.7 mph - -   Partly Cloudy
8:15 AM 64.4 °F 57.2 °F 77% 30.06 in - SE 5.8 mph - N/A   Clear
8:45 AM 64.4 °F 59.0 °F 83% 30.06 in - ESE 5.8 mph - N/A   Clear
9:15 AM 66.2 °F 59.0 °F 78% 30.06 in - SSE 4.6 mph - N/A   Clear
9:45 AM 68.0 °F 59.0 °F 73% 30.06 in - SSE 2.3 mph - N/A   Clear
10:00 AM - - N/A% - - Variable 3.5 mph - N/A   Dust Whirls
10:15 AM 68.0 °F 59.0 °F 73% 30.06 in - ESE 3.5 mph - N/A   Clear
10:45 AM 68.0 °F 59.0 °F 73% 30.06 in - ESE 4.6 mph - N/A   Clear
11:15 AM 69.8 °F 59.0 °F 68% 30.06 in 6.2 mi East 4.6 mph - N/A   Overcast
11:45 AM 69.8 °F 59.0 °F 68% 30.06 in 6.2 mi South 3.5 mph - N/A   Overcast
12:15 PM 71.6 °F 59.0 °F 64% 30.06 in 6.2 mi South 4.6 mph - N/A   Overcast
12:45 PM 73.4 °F 60.8 °F 65% 30.06 in - South 2.3 mph - N/A   Clear
1:00 PM - - N/A% - - Variable 3.5 mph - N/A   Dust Whirls
1:15 PM 73.4 °F 62.6 °F 69% 30.06 in - East 2.3 mph - N/A   Clear
1:45 PM 75.2 °F 59.0 °F 57% 30.06 in - ESE 4.6 mph - N/A   Clear
2:00 PM 75 °F 59 °F 47% 30.04 in 11 mi ESE 4.5 mph - -   Partly Cloudy
2:15 PM 75.2 °F 60.8 °F 61% 30.04 in 6.2 mi South 3.5 mph - N/A   Overcast
2:45 PM 77.0 °F 59.0 °F 54% 30.04 in 6.2 mi SE 4.6 mph - N/A   Overcast
3:15 PM 77.0 °F 55.4 °F 47% 30.04 in 6.2 mi SSE 4.6 mph - N/A   Overcast
3:45 PM 77.0 °F 53.6 °F 44% 30.04 in 6.2 mi South 2.3 mph - N/A   Overcast
4:15 PM 78.8 °F 53.6 °F 42% 30.01 in - North 2.3 mph - N/A   Clear
4:45 PM 78.8 °F 55.4 °F 44% 30.01 in - SSE 3.5 mph - N/A   Clear
5:15 PM 78.8 °F 51.8 °F 39% 30.01 in - ESE 2.3 mph - N/A   Clear
5:45 PM 77.0 °F 53.6 °F 44% 30.01 in - SSW 4.6 mph - N/A   Clear
6:15 PM 75.2 °F 48.2 °F 38% 30.01 in - SSW 6.9 mph - N/A   Clear
6:45 PM 75.2 °F 55.4 °F 50% 30.01 in - West 6.9 mph - N/A   Clear
7:15 PM 73.4 °F 53.6 °F 50% 30.01 in - West 8.1 mph - N/A   Clear
7:45 PM 71.6 °F 53.6 °F 53% 30.01 in - West 4.6 mph - N/A   Clear
8:00 PM 72 °F 54 °F 43% 30.00 in 19 mi West 4.5 mph - -   Partly Cloudy
8:45 PM 69.8 °F 55.4 °F 60% 30.01 in - West 4.6 mph - N/A   Clear
9:00 PM - - N/A% - - North - - N/A   Unknown